AirNav   TITAN Aviation Fuels
 
 1175 users online  

MY52 Turkey Track Airport
Coates, Minnesota, USA

GOING TO COATES?


FAA INFORMATION EFFECTIVE 01 DECEMBER 2022

Location

FAA Identifier: MY52
Lat/Long: 44-43-06.8790N 093-02-38.7680W
44-43.114650N 093-02.646133W
44.7185775,-93.0441022
(estimated)
Elevation: 923 ft. / 281 m (estimated)
Variation: 03E (1985)
From city: 1 mile W of COATES, MN
Time zone: UTC -6 (UTC -5 during Daylight Saving Time)
Zip code: 55068

Airport Operations

Airport use: Private use, PERSONAL USE.
Activation date: 03/1983
Control tower: no
ARTCC: MINNEAPOLIS CENTER
FSS: PRINCETON FLIGHT SERVICE STATION
Attendance: UNATNDD
Segmented circle: no

Airport Communications

WX AWOS-3 at SGS (8 nm N): 119.425 (651-457-8120)
WX AWOS-3 at LVN (10 nm SW): 118.0 (952-469-5850)
WX ASOS at MSP (12 nm NW): PHONE 612-713-4174
WX ASOS at STP (13 nm N): 118.35 (651-312-8888)
WX AWOS-3 at SYN (15 nm S): 119.35 (507-664-3806)
WX AWOS-3 at 21D (19 nm NE): 120.075 (651-779-5949)
WX ASOS at FCM (19 nm W): PHONE 952-941-4156

Nearby radio navigation aids

VOR radial/distance  VOR name  Freq  Var
FGTr042/7.9FARMINGTON VORTAC115.7006E
MSPr140/13.5MINNEAPOLIS VOR/DME115.3002E
FCMr110/18.1FLYING CLOUD VOR/DME117.7001E
GEPr145/29.2GOPHER VORTAC117.3006E
FOWr022/33.9HALFWAY VOR/DME111.2002E

Airport Services

Runway Information

Runway 18/36

Dimensions: 2000 x 150 ft. / 610 x 46 m
Surface: turf
RUNWAY 18  RUNWAY 36
Traffic pattern: leftleft

Airport Ownership and Management from official FAA records

Ownership: Privately-owned
Owner: CRAIG FRANZMEIER
3033 160TH ST EAST
ROSEMOUNT, MN 55068
Phone (651) 423-2377
Manager: CRAIG FRANZMEIER
3033 160TH ST EAST
ROSEMOUNT, MN 55068
Phone (651) 423-2377

Additional Remarks

FOR CD CTC MINNEAPOLIS ARTCC AT 651-463-5588.

Instrument Procedures

There are no published instrument procedures at MY52.

Some nearby airports with instrument procedures:

KSGS - South St Paul Municipal Airport/Richard E Fleming Field (8 nm N)
KLVN - Airlake Airport (10 nm SW)
KMSP - Minneapolis-St Paul International/Wold-Chamberlain Airport (12 nm NW)
KSTP - St Paul Downtown Airport Holman Field (13 nm N)
21D - Lake Elmo Airport (19 nm NE)
KFCM - Flying Cloud Airport (19 nm W)
 
Loc | Ops | Rwys | IFR | FBO | Links
Com | Nav | Svcs | Stats | Notes
Area around MY52 (Turkey Track Airport)
 
Road maps at: MapQuest Bing Google
 
Aerial photo
No photo
 
Sectional chart

 
Airport distance calculator
Flying to Turkey Track Airport? Find the distance to fly.

From to MY52

Sunrise and sunset
Times for 03-Dec-2022
 Local
(UTC-6)
 Zulu
(UTC)
Morning civil twilight06:5912:59
Sunrise07:3213:32
Sunset16:3222:32
Evening civil twilight17:0523:05

Current date and time
Zulu (UTC)  04-Dec-2022 02:14:11
Local (UTC-6)  03-Dec-2022 20:14:11
 
METAR
KSGS 
9nm NW 
040155Z AUTO 00000KT 10SM CLR M13/M16 A3028 RMK AO2 T11271163
KLVN 
10nm SW 
040155Z AUTO 00000KT 10SM CLR M16/M18 A3028 RMK AO2
KMSP 
13nm NW 
040153Z 13005KT 10SM CLR M12/M17 A3027 RMK AO2 SLP272 T11221172 $
KSTP 
13nm N 
040153Z 15005KT 10SM CLR M12/M17 A3030 RMK AO2 SLP276 T11221172
KSYN 
15nm S 
040155Z AUTO 19005KT 10SM CLR M10/M14 A3027 RMK AO2 T11041140
K21D 
19nm NE 
040155Z AUTO 10003KT 10SM CLR M14/M17 A3029 RMK AO2
KFCM 
19nm W 
040153Z 17007KT 10SM CLR M13/M18 A3025 RMK AO2 PRESFR SLP266 T11331178
TAF
KMSP 
13nm NW 
032236Z 0323/0424 18005KT P6SM SKC FM040900 23008KT P6SM SKC FM041800 24010KT P6SM SKC
NOTAMs
Click for the latest NOTAMs
NOTAMs are issued by the DoD/FAA and will open in a separate window not controlled by AirNav.

 

 
 

Would you like to see your business listed on this page?

 If your business provides an interesting product or service to pilots, flight crews, aircraft, or users of the Turkey Track Airport, you should consider listing it here.  To start the listing process, click on the button below
 
Add a business
 

Other Pages about Turkey Track Airport

Update a link
 
Copyright © AirNav, LLC. All rights reserved. Privacy Policy  Contact